Location: Alsip
(41.6689°N, 87.7387°W)
Time: 14:21:31
(UTC+00:00)

Okean 2 - Pass Details

Date: 14 July 2020
Orbit: 559 x 578 km, 82.5° (Epoch: 12 August)

Event Time Altitude Azimuth Distance (km) Brightness Sun altitude
Rises 08:57:41 0° 357° (N) 2,761 7.6 -14.2°
Reaches altitude 10° 08:59:55 10° 2° (N) 1,858 6.7 -13.9°
Maximum altitude 09:03:55 52° 79° (E) 699 4.2 -13.4°
Drops below altitude 10° 09:07:53 10° 157° (SSE) 1,840 5.8 -12.9°
Sets 09:10:05 0° 162° (SSE) 2,731 6.6 -12.6°
